Regional Weather Roundup
Issued by NWS

Home | Current Version | Previous Version | Text Only | Print | Product List | Glossary On
Versions: 1 2 3 4 5 6 7 8 9 10 11 12 13 14 15 16 17 18 19 20 21 22 23 24 25 26 27 28 29 30 31 32 33 34 35 36 37 38 39 40 41 42 43 44 45 46 47 48 49 50
000
ASUS45 KBOU 110307
RWRCO

WEATHER ROUNDUP FOR COLORADO
NATIONAL WEATHER SERVICE DENVER/BOULDER CO
800 PM MST WED FEB 10 2016

NOTE: "FAIR" INDICATES FEW OR NO CLOUDS BELOW 12000 FEET WITH NO
SIGNIFICANT WEATHER AND/OR OBSTRUCTIONS TO VISIBILITY.

COZ001>005-013-030-031-110400-
...NORTHWEST COLORADO...

CITY           SKY/WX    TMP DP  RH WIND       PRES   REMARKS
CRAIG          CLOUDY     9   6  88 CALM      30.38R
HAYDEN         CLOUDY    21  14  73 CALM      30.36S
MEEKER         CLOUDY    20  14  77 E3        30.36R
MOUNT WERNER   NOT AVBL
STEAMBOAT SPGS CLOUDY    21  16  81 CALM      30.36S
WALDEN         CLOUDY    19   7  58 NE8       30.35R WCI   9
$$

COZ006>008-011-110400-
...WEST CENTRAL VALLEYS...

CITY           SKY/WX    TMP DP  RH WIND       PRES   REMARKS
GRAND JUNCTION CLOUDY    30  26  85 NE9       30.38F WCI  22
MONTROSE       CLOUDY    29  23  78 S5        30.41S WCI  24
EAGLE          CLEAR     28  18  64 E7        30.37R WCI  21
RIFLE          CLOUDY    27  17  66 SE5       30.39R WCI  22
DELTA          CLOUDY    34  27  76 N6        30.40R WCI  29
NUCLA          CLOUDY    34  27  75 E6        30.40R WCI  29
$$

COZ017>023-064>068-110400-
...SOUTHWEST COLORADO...

CITY           SKY/WX    TMP DP  RH WIND       PRES   REMARKS
DURANGO        CLOUDY    28  20  71 NE6       30.36S WCI  22
CORTEZ         CLOUDY    30  24  78 NE6       30.36S WCI  24
PAGOSA SPRINGS CLOUDY    30  20  67 CALM      30.38S
TELLURIDE      CLOUDY    35   8  32 SE7       30.45F WCI  29
WOLF CREEK PAS CLOUDY    30  -8  19 W9        30.52F WCI  22
$$

COZ009-010-012-014-032>034-037-058>063-110400-
...CENTRAL COLORADO...

CITY           SKY/WX    TMP DP  RH WIND       PRES   REMARKS
ASPEN          CLOUDY    24  13  62 S7        30.38F WCI  16
BUENA VISTA    CLOUDY    38   9  30 N8        30.33S
COPPER MTN     NOT AVBL
BERTHOUD PASS  NOT AVBL
COTTONWOOD PAS CLOUDY    41 -15   9 W13G28    30.37F
GUNNISON       CLOUDY     3  -8  60 NE5       30.48S WCI  -6
KREMMLING      CLOUDY     3  -2  78 CALM      30.41S
LEADVILLE      CLOUDY    31   2  29 NW10      30.38F WCI  22
MONARCH PASS   CLOUDY    27   1  33 W30G36    30.55F WCI  10
SALIDA         NOT AVBL
SUNLIGHT       CLOUDY    30  10  43 CALM      30.45S
WILKERSON PASS CLOUDY    30   0  27 W8        30.42F WCI  23
$$

COZ069>075-110400-
...SAN LUIS VALLEY/SANGRE DE CRISTO MOUNTAINS...

CITY           SKY/WX    TMP DP  RH WIND       PRES   REMARKS
ALAMOSA        CLOUDY    30  20  66 N6        30.34S WCI  24
LA VETA PASS   CLOUDY    32   9  37 MISG      30.37S
SAGUACHE       CLOUDY    30  19  64 N3        30.37F
$$

COZ035-036-038>040-110400-
...NORTHERN COLORADO FRONT RANGE...

CITY           SKY/WX    TMP DP  RH WIND       PRES   REMARKS
DENVER INTL AP CLOUDY    54   9  16 NW13      30.16F
DMNS CITY PARK   N/A     56   4  12 N12G17    30.18R
AURORA         MOCLDY    48  12  23 N7        30.19R
FRONT RANGE AP MOCLDY    48  14  25 W8        30.18R
ERIE MUNI ARPT CLOUDY    43  20  40 CALM      30.16R
BOULDER MUN AP CLOUDY    54   9  16 E3        30.16R
CENTENNIAL     CLOUDY    52  10  18 NW14      30.18R
BROOMFIELD     MOCLDY    52   9  17 W17G23    30.18R
FORT COLLINS   CLOUDY    46  14  27 NW8       30.16S
LONGMONT       CLOUDY    47  19  32 CALM      30.17S
$$

COZ041-046-047-076>085-087-088-110400-
...PIKES PEAK/PALMER DIVIDE AND SOUTHERN FOOTHILLS...

CITY           SKY/WX    TMP DP  RH WIND       PRES   REMARKS
COLO. SPRINGS  CLOUDY    52  12  20 NW10      30.20R
A. F. ACADEMY  CLOUDY    38  23  53 NE5       30.20S
SCHRIEVER AFB  MOCLDY    52  11  19 NW14G21   30.19S
ELLICOTT       CLOUDY   N/A N/A N/A N13       30.18R
FALCON         NOT AVBL
FORT CARSON    CLOUDY    51  15  24 NW6       30.17R
LIMON          CLOUDY    36  27  69 N12       30.17R
MONUMENT HILL  NOT AVBL
TRINIDAD       CLOUDY    47   3  16 W9        30.17F
$$

COZ042>045-048>051-090-091-110400-
...NORTHEAST COLORADO...

CITY           SKY/WX    TMP DP  RH WIND       PRES   REMARKS
GREELEY ARPT   CLOUDY    37  25  60 N13       30.15R
AKRON          CLOUDY    38  26  62 NW14      30.13R
BURLINGTON     CLOUDY    42  28  57 NW12      30.12R
WRAY           NOT AVBL
STERLING       CLOUDY    43  28  56 NW16      30.11S
HOLYOKE        PTCLDY    46  28  49 NW14      30.08S
FORT MORGAN    CLOUDY    43  22  42 N20       30.15R
$$

COZ086-089-092>099-110400-
...SOUTHEAST COLORADO...

CITY           SKY/WX    TMP DP  RH WIND       PRES   REMARKS
PUEBLO         CLOUDY    51  18  27 NW10      30.12S
LA JUNTA       CLOUDY    52  21  29 W18       30.08R
LAMAR          CLOUDY    46  23  40 NE9       30.07R
SPRINGFIELD      N/A     34  16  47 SW9       30.09S WCI  27
$$



USA.gov is the U.S. government's official web portal to all federal, state and local government web resources and services.